Time,TemperatureF,DewpointF,PressureIn,WindDirection,WindDirectionDegrees,WindSpeedMPH,WindSpeedGustMPH,Humidity,HourlyPrecipIn,Conditions,Clouds,dailyrainin,SoftwareType,DateUTC
2013-07-04 00:01:00,56.3,31.0,29.74,NNE,32,4.0,4.0,38,0.00,,---,0.00,VWS V14.01,2013-07-04 07:01:00,
2013-07-04 00:06:00,56.1,30.9,29.74,NNE,30,4.9,4.9,38,0.00,,---,0.00,VWS V14.01,2013-07-04 07:06:00,
2013-07-04 00:11:00,56.1,30.9,29.74,NE,49,5.4,5.4,38,0.00,,---,0.00,VWS V14.01,2013-07-04 07:11:00,
2013-07-04 00:16:00,56.1,30.9,29.74,NE,35,4.0,4.0,38,0.00,,---,0.00,VWS V14.01,2013-07-04 07:16:00,
2013-07-04 00:21:00,55.8,31.2,29.74,NNE,33,4.5,4.5,39,0.00,,---,0.00,VWS V14.01,2013-07-04 07:21:00,
2013-07-04 00:26:00,55.6,31.0,29.74,NNE,33,4.5,4.5,39,0.00,,---,0.00,VWS V14.01,2013-07-04 07:26:00,
2013-07-04 00:31:00,55.9,31.4,29.74,NE,56,5.8,5.8,39,0.00,,---,0.00,VWS V14.01,2013-07-04 07:31:00,
2013-07-04 00:36:00,55.9,31.4,29.74,NE,37,5.8,5.8,39,0.00,,---,0.00,VWS V14.01,2013-07-04 07:36:00,
2013-07-04 00:41:00,55.9,31.4,29.74,East,93,6.3,6.3,39,0.00,,---,0.00,VWS V14.01,2013-07-04 07:41:00,
2013-07-04 00:46:00,55.6,30.4,29.74,East,93,6.3,6.3,38,0.00,,---,0.00,VWS V14.01,2013-07-04 07:46:00,
2013-07-04 00:51:00,55.6,30.4,29.74,NE,39,5.4,5.4,38,0.00,,---,0.00,VWS V14.01,2013-07-04 07:51:00,
2013-07-04 00:56:00,55.4,30.2,29.74,NE,39,5.4,5.4,38,0.00,,---,0.00,VWS V14.01,2013-07-04 07:56:00,
2013-07-04 01:01:00,55.4,30.2,29.74,NE,37,5.8,5.8,38,0.00,,---,0.00,VWS V14.01,2013-07-04 08:01:00,
2013-07-04 01:06:00,55.4,30.2,29.74,NE,45,6.3,6.3,38,0.00,,---,0.00,VWS V14.01,2013-07-04 08:06:00,
2013-07-04 01:11:00,55.4,29.6,29.74,ENE,68,6.3,6.3,37,0.00,,---,0.00,VWS V14.01,2013-07-04 08:11:00,
2013-07-04 01:16:00,55.4,28.9,29.74,ENE,68,6.3,6.3,36,0.00,,---,0.00,VWS V14.01,2013-07-04 08:16:00,
2013-07-04 01:21:00,55.0,28.6,29.74,ENE,68,6.3,6.3,36,0.00,,---,0.00,VWS V14.01,2013-07-04 08:21:00,
2013-07-04 01:26:00,54.9,28.4,29.74,ENE,59,6.3,6.3,36,0.00,,---,0.00,VWS V14.01,2013-07-04 08:26:00,
2013-07-04 01:31:00,54.9,28.4,29.74,NE,35,6.3,6.3,36,0.00,,---,0.00,VWS V14.01,2013-07-04 08:31:00,
2013-07-04 01:36:00,54.9,28.4,29.74,NE,45,6.3,6.3,36,0.00,,---,0.00,VWS V14.01,2013-07-04 08:36:00,
2013-07-04 01:41:00,54.3,28.0,29.74,NE,54,6.3,6.3,36,0.00,,---,0.00,VWS V14.01,2013-07-04 08:41:00,
2013-07-04 01:46:00,54.1,27.8,29.74,East,79,5.8,5.8,36,0.00,,---,0.00,VWS V14.01,2013-07-04 08:46:00,
2013-07-04 01:51:00,54.1,28.5,29.74,NE,46,6.3,6.3,37,0.00,,---,0.00,VWS V14.01,2013-07-04 08:51:00,
2013-07-04 01:56:00,54.1,28.5,29.77,NE,45,7.2,7.2,37,0.00,,---,0.00,VWS V14.01,2013-07-04 08:56:00,
2013-07-04 02:01:00,54.1,28.5,29.77,NE,54,5.8,5.8,37,0.00,,---,0.00,VWS V14.01,2013-07-04 09:01:00,
2013-07-04 02:06:00,53.8,28.1,29.77,NE,43,6.7,6.7,37,0.00,,---,0.00,VWS V14.01,2013-07-04 09:06:00,
2013-07-04 02:11:00,53.8,28.1,29.77,North,357,7.6,7.6,37,0.00,,---,0.00,VWS V14.01,2013-07-04 09:11:00,
2013-07-04 02:16:00,53.8,28.1,29.77,NE,34,5.8,5.8,37,0.00,,---,0.00,VWS V14.01,2013-07-04 09:16:00,
2013-07-04 02:21:00,53.4,28.5,29.77,NNE,30,5.4,5.4,38,0.00,,---,0.00,VWS V14.01,2013-07-04 09:21:00,
2013-07-04 02:26:00,53.4,28.5,29.77,ENE,75,5.4,5.4,38,0.00,,---,0.00,VWS V14.01,2013-07-04 09:26:00,
2013-07-04 02:31:00,53.4,28.5,29.77,NE,51,5.8,5.8,38,0.00,,---,0.00,VWS V14.01,2013-07-04 09:31:00,
2013-07-04 02:36:00,53.4,28.5,29.77,NE,51,5.8,5.8,38,0.00,,---,0.00,VWS V14.01,2013-07-04 09:36:00,
2013-07-04 02:41:00,53.4,28.5,29.77,NE,39,5.4,5.4,38,0.00,,---,0.00,VWS V14.01,2013-07-04 09:41:00,
2013-07-04 02:46:00,53.4,28.5,29.77,NNE,26,5.8,5.8,38,0.00,,---,0.00,VWS V14.01,2013-07-04 09:46:00,
2013-07-04 02:51:00,53.4,28.5,29.77,NNE,29,2.7,2.7,38,0.00,,---,0.00,VWS V14.01,2013-07-04 09:51:00,
2013-07-04 02:56:00,52.7,28.5,29.77,NNE,29,2.7,2.7,39,0.00,,---,0.00,VWS V14.01,2013-07-04 09:56:00,
2013-07-04 03:01:00,52.7,28.5,29.77,East,80,7.6,7.6,39,0.00,,---,0.00,VWS V14.01,2013-07-04 10:01:00,
2013-07-04 03:06:00,52.5,28.9,29.77,NNE,15,7.6,7.6,40,0.00,,---,0.00,VWS V14.01,2013-07-04 10:06:00,
2013-07-04 03:11:00,52.2,28.6,29.77,North,11,6.3,6.3,40,0.00,,---,0.00,VWS V14.01,2013-07-04 10:11:00,
2013-07-04 03:16:00,52.0,29.0,29.77,NE,49,5.4,5.8,41,0.00,,---,0.00,VWS V14.01,2013-07-04 10:16:00,
2013-07-04 03:21:00,52.2,29.2,29.77,North,6,2.7,2.7,41,0.00,,---,0.00,VWS V14.01,2013-07-04 10:21:00,
2013-07-04 03:26:00,52.2,29.2,29.77,ESE,108,4.0,4.0,41,0.00,,---,0.00,VWS V14.01,2013-07-04 10:26:00,
2013-07-04 03:31:00,53.4,29.1,29.77,East,99,8.1,8.1,39,0.00,,---,0.00,VWS V14.01,2013-07-04 10:31:00,
2013-07-04 03:36:00,53.4,29.1,29.77,ESE,107,6.3,6.3,39,0.00,,---,0.00,VWS V14.01,2013-07-04 10:36:00,
2013-07-04 03:41:00,53.4,29.1,29.77,East,100,6.3,6.3,39,0.00,,---,0.00,VWS V14.01,2013-07-04 10:41:00,
2013-07-04 03:46:00,54.3,28.6,29.77,East,99,8.3,8.3,37,0.00,,---,0.00,VWS V14.01,2013-07-04 10:46:00,
2013-07-04 03:51:00,54.3,28.6,29.74,SE,128,4.0,4.0,37,0.00,,---,0.00,VWS V14.01,2013-07-04 10:51:00,
2013-07-04 03:56:00,54.1,28.5,29.74,ENE,73,5.8,5.8,37,0.00,,---,0.00,VWS V14.01,2013-07-04 10:56:00,
2013-07-04 04:01:00,54.0,28.3,29.74,NNE,29,3.1,3.1,37,0.00,,---,0.00,VWS V14.01,2013-07-04 11:01:00,
2013-07-04 04:06:00,52.9,28.6,29.74,East,97,5.4,5.4,39,0.00,,---,0.00,VWS V14.01,2013-07-04 11:06:00,
2013-07-04 04:11:00,52.9,28.6,29.74,NNE,26,7.6,7.6,39,0.00,,---,0.00,VWS V14.01,2013-07-04 11:11:00,
2013-07-04 04:16:00,51.8,28.3,29.74,NNE,26,7.6,7.6,40,0.00,,---,0.00,VWS V14.01,2013-07-04 11:16:00,
2013-07-04 04:21:00,51.3,29.5,29.74,NE,50,8.3,8.3,43,0.00,,---,0.00,VWS V14.01,2013-07-04 11:21:00,
2013-07-04 04:26:00,50.9,29.8,29.74,NE,38,3.6,3.6,44,0.00,,---,0.00,VWS V14.01,2013-07-04 11:26:00,
2013-07-04 04:31:00,50.9,30.9,29.74,NNW,342,8.1,8.1,46,0.00,,---,0.00,VWS V14.01,2013-07-04 11:31:00,
2013-07-04 04:36:00,50.9,30.9,29.74,NNE,31,5.8,5.8,46,0.00,,---,0.00,VWS V14.01,2013-07-04 11:36:00,
2013-07-04 04:41:00,50.9,31.4,29.74,ESE,110,5.4,5.4,47,0.00,,---,0.00,VWS V14.01,2013-07-04 11:41:00,
2013-07-04 04:46:00,54.3,28.6,29.77,ESE,111,7.2,7.6,37,0.00,,---,0.00,VWS V14.01,2013-07-04 11:46:00,
2013-07-04 04:51:00,54.7,28.3,29.77,ESE,116,3.1,3.1,36,0.00,,---,0.00,VWS V14.01,2013-07-04 11:51:00,
2013-07-04 04:56:00,54.7,28.3,29.77,ESE,116,3.1,3.1,36,0.00,,---,0.00,VWS V14.01,2013-07-04 11:56:00,
2013-07-04 05:01:00,54.7,28.3,29.77,ENE,64,6.3,8.1,36,0.00,,---,0.00,VWS V14.01,2013-07-04 12:01:00,
2013-07-04 05:06:00,51.3,29.0,29.77,NE,50,6.3,6.3,42,0.00,,---,0.00,VWS V14.01,2013-07-04 12:06:00,
2013-07-04 05:11:00,51.3,29.0,29.77,NE,37,7.6,7.6,42,0.00,,---,0.00,VWS V14.01,2013-07-04 12:11:00,
2013-07-04 05:16:00,50.5,30.5,29.77,NE,40,8.1,8.1,46,0.00,,---,0.00,VWS V14.01,2013-07-04 12:16:00,
2013-07-04 05:21:00,50.5,30.5,29.77,NNE,28,8.1,8.1,46,0.00,,---,0.00,VWS V14.01,2013-07-04 12:21:00,
2013-07-04 05:26:00,50.5,30.5,29.77,NE,38,8.1,8.1,46,0.00,,---,0.00,VWS V14.01,2013-07-04 12:26:00,
2013-07-04 05:31:00,50.2,31.8,29.77,ENE,63,3.1,3.1,49,0.00,,---,0.00,VWS V14.01,2013-07-04 12:31:00,
2013-07-04 05:36:00,50.2,31.8,29.77,ENE,71,4.9,4.9,49,0.00,,---,0.00,VWS V14.01,2013-07-04 12:36:00,
2013-07-04 05:41:00,53.1,28.8,29.77,NE,37,4.0,4.0,39,0.00,,---,0.00,VWS V14.01,2013-07-04 12:41:00,
2013-07-04 05:46:00,51.8,27.6,29.77,NE,36,3.6,3.6,39,0.00,,---,0.00,VWS V14.01,2013-07-04 12:46:00,
2013-07-04 05:51:00,51.8,27.6,29.77,NE,50,3.1,3.1,39,0.00,,---,0.00,VWS V14.01,2013-07-04 12:51:00,
2013-07-04 05:56:00,55.0,31.2,29.77,NE,39,4.9,4.9,40,0.00,,---,0.00,VWS V14.01,2013-07-04 12:56:00,
2013-07-04 06:01:00,55.0,31.2,29.77,NE,37,5.4,5.4,40,0.00,,---,0.00,VWS V14.01,2013-07-04 13:01:00,
2013-07-04 06:06:00,58.1,30.6,29.77,NNE,23,7.6,7.6,35,0.00,,---,0.00,VWS V14.01,2013-07-04 13:06:00,
2013-07-04 06:11:00,58.1,30.6,29.77,NE,37,6.3,6.3,35,0.00,,---,0.00,VWS V14.01,2013-07-04 13:11:00,
2013-07-04 06:16:00,58.1,30.6,29.77,NE,37,6.3,6.3,35,0.00,,---,0.00,VWS V14.01,2013-07-04 13:16:00,
2013-07-04 06:21:00,58.1,30.6,29.77,ESE,118,3.1,3.1,35,0.00,,---,0.00,VWS V14.01,2013-07-04 13:21:00,
2013-07-04 06:26:00,58.1,30.6,29.77,NNE,31,3.6,3.6,35,0.00,,---,0.00,VWS V14.01,2013-07-04 13:26:00,
2013-07-04 06:31:00,58.1,30.6,29.77,NNE,32,3.6,3.6,35,0.00,,---,0.00,VWS V14.01,2013-07-04 13:31:00,
2013-07-04 06:36:00,66.4,20.3,29.77,NE,49,5.8,5.8,17,0.00,,---,0.00,VWS V14.01,2013-07-04 13:36:00,
2013-07-04 06:41:00,66.6,17.5,29.77,NE,52,5.4,5.4,15,0.00,,---,0.00,VWS V14.01,2013-07-04 13:41:00,
2013-07-04 06:46:00,67.3,18.1,29.77,ENE,67,3.1,3.1,15,0.00,,---,0.00,VWS V14.01,2013-07-04 13:46:00,
2013-07-04 06:51:00,67.3,18.1,29.77,ESE,116,3.6,3.6,15,0.00,,---,0.00,VWS V14.01,2013-07-04 13:51:00,
2013-07-04 06:56:00,63.3,16.4,29.77,North,6,5.8,5.8,16,0.00,,---,0.00,VWS V14.01,2013-07-04 13:56:00,
2013-07-04 07:01:00,63.1,16.2,29.77,East,81,4.9,4.9,16,0.00,,---,0.00,VWS V14.01,2013-07-04 14:01:00,
2013-07-04 07:06:00,63.1,16.2,29.80,NE,41,6.3,6.3,16,0.00,,---,0.00,VWS V14.01,2013-07-04 14:06:00,
2013-07-04 07:11:00,63.3,16.4,29.80,ENE,62,3.6,3.6,16,0.00,,---,0.00,VWS V14.01,2013-07-04 14:11:00,
2013-07-04 07:16:00,65.8,16.9,29.80,ESE,122,4.0,4.0,15,0.00,,---,0.00,VWS V14.01,2013-07-04 14:16:00,
2013-07-04 07:21:00,65.8,16.9,29.80,NNW,331,2.7,2.7,15,0.00,,---,0.00,VWS V14.01,2013-07-04 14:21:00,
2013-07-04 07:26:00,69.4,14.6,29.80,NNE,29,5.4,5.4,12,0.00,,---,0.00,VWS V14.01,2013-07-04 14:26:00,
2013-07-04 07:31:00,71.4,16.2,29.80,North,2,3.6,3.6,12,0.00,,---,0.00,VWS V14.01,2013-07-04 14:31:00,
2013-07-04 07:36:00,71.4,16.2,29.80,ENE,75,5.4,5.4,12,0.00,,---,0.00,VWS V14.01,2013-07-04 14:36:00,
2013-07-04 07:41:00,68.9,14.2,29.80,East,97,3.6,3.6,12,0.00,,---,0.00,VWS V14.01,2013-07-04 14:41:00,
2013-07-04 07:46:00,68.9,14.2,29.80,NE,52,3.1,3.1,12,0.00,,---,0.00,VWS V14.01,2013-07-04 14:46:00,
2013-07-04 07:51:00,67.3,13.0,29.80,East,84,5.4,5.4,12,0.00,,---,0.00,VWS V14.01,2013-07-04 14:51:00,
2013-07-04 07:56:00,66.9,12.7,29.80,ESE,110,7.6,7.6,12,0.00,,---,0.00,VWS V14.01,2013-07-04 14:56:00,
2013-07-04 08:01:00,66.9,12.7,29.80,East,97,10.5,10.5,12,0.00,,---,0.00,VWS V14.01,2013-07-04 15:01:00,
2013-07-04 08:06:00,64.4,12.5,29.80,ESE,120,5.8,5.8,13,0.00,,---,0.00,VWS V14.01,2013-07-04 15:06:00,
2013-07-04 08:11:00,64.4,12.5,29.80,East,89,8.1,8.1,13,0.00,,---,0.00,VWS V14.01,2013-07-04 15:11:00,
2013-07-04 08:16:00,62.2,12.5,29.80,SE,124,10.1,10.1,14,0.00,,---,0.00,VWS V14.01,2013-07-04 15:16:00,
2013-07-04 08:21:00,62.2,12.5,29.80,ESE,109,11.0,11.0,14,0.00,,---,0.00,VWS V14.01,2013-07-04 15:21:00,
2013-07-04 08:26:00,62.2,12.5,29.80,ESE,107,13.2,13.2,14,0.00,,---,0.00,VWS V14.01,2013-07-04 15:26:00,
2013-07-04 08:31:00,63.5,11.8,29.80,ESE,113,8.7,8.7,13,0.00,,---,0.00,VWS V14.01,2013-07-04 15:31:00,
2013-07-04 08:36:00,63.5,11.8,29.80,East,101,6.3,6.3,13,0.00,,---,0.00,VWS V14.01,2013-07-04 15:36:00,
2013-07-04 08:41:00,63.1,11.5,29.80,East,91,10.5,10.5,13,0.00,,---,0.00,VWS V14.01,2013-07-04 15:41:00,
2013-07-04 08:46:00,63.1,11.5,29.80,East,92,6.7,6.7,13,0.00,,---,0.00,VWS V14.01,2013-07-04 15:46:00,
2013-07-04 08:51:00,63.1,11.5,29.80,ESE,116,10.1,10.1,13,0.00,,---,0.00,VWS V14.01,2013-07-04 15:51:00,
2013-07-04 08:56:00,64.6,12.7,29.80,ESE,104,3.1,3.1,13,0.00,,---,0.00,VWS V14.01,2013-07-04 15:56:00,
2013-07-04 09:01:00,64.6,12.7,29.80,ESE,119,11.0,11.0,13,0.00,,---,0.00,VWS V14.01,2013-07-04 16:01:00,
2013-07-04 09:06:00,65.7,13.5,29.80,East,101,8.1,8.1,13,0.00,,---,0.00,VWS V14.01,2013-07-04 16:06:00,
2013-07-04 09:11:00,64.4,12.5,29.80,SE,128,5.8,5.8,13,0.00,,---,0.00,VWS V14.01,2013-07-04 16:11:00,
2013-07-04 09:16:00,64.4,12.5,29.80,NE,36,2.7,2.7,13,0.00,,---,0.00,VWS V14.01,2013-07-04 16:16:00,
2013-07-04 09:21:00,64.4,12.5,29.80,East,99,5.8,5.8,13,0.00,,---,0.00,VWS V14.01,2013-07-04 16:21:00,
2013-07-04 09:26:00,66.9,12.7,29.80,ESE,115,5.8,5.8,12,0.00,,---,0.00,VWS V14.01,2013-07-04 16:26:00,
2013-07-04 09:31:00,65.1,7.2,29.80,SE,127,12.8,12.8,10,0.00,,---,0.00,VWS V14.01,2013-07-04 16:31:00,
2013-07-04 09:36:00,64.6,6.8,29.80,East,99,12.8,12.8,10,0.00,,---,0.00,VWS V14.01,2013-07-04 16:36:00,
2013-07-04 09:41:00,64.6,6.8,29.80,ESE,115,6.3,6.3,10,0.00,,---,0.00,VWS V14.01,2013-07-04 16:41:00,
2013-07-04 09:46:00,64.6,6.8,29.80,NE,38,8.7,8.7,10,0.00,,---,0.00,VWS V14.01,2013-07-04 16:46:00,
2013-07-04 09:51:00,73.8,8.8,29.80,NE,38,8.7,8.7,8,0.00,,---,0.00,VWS V14.01,2013-07-04 16:51:00,
2013-07-04 09:56:00,73.8,8.8,29.80,ESE,110,9.2,9.2,8,0.00,,---,0.00,VWS V14.01,2013-07-04 16:56:00,
2013-07-04 10:01:00,69.4,10.5,29.80,East,98,6.3,6.3,10,0.00,,---,0.00,VWS V14.01,2013-07-04 17:01:00,
2013-07-04 10:06:00,69.4,10.5,29.80,ESE,122,7.6,7.6,10,0.00,,---,0.00,VWS V14.01,2013-07-04 17:06:00,
2013-07-04 10:11:00,75.4,10.0,29.80,NNE,26,8.3,8.3,8,0.00,,---,0.00,VWS V14.01,2013-07-04 17:11:00,
2013-07-04 10:16:00,67.8,9.3,29.80,NNE,26,8.3,8.3,10,0.00,,---,0.00,VWS V14.01,2013-07-04 17:16:00,
2013-07-04 10:21:00,67.8,9.3,29.80,NNE,17,7.6,7.6,10,0.00,,---,0.00,VWS V14.01,2013-07-04 17:21:00,
2013-07-04 10:26:00,69.8,8.5,29.80,ESE,114,11.0,11.0,9,0.00,,---,0.00,VWS V14.01,2013-07-04 17:26:00,
2013-07-04 10:31:00,69.8,8.5,29.80,SE,140,6.3,6.3,9,0.00,,---,0.00,VWS V14.01,2013-07-04 17:31:00,
2013-07-04 10:36:00,73.9,9.0,29.80,East,86,8.1,8.1,8,0.00,,---,0.00,VWS V14.01,2013-07-04 17:36:00,
2013-07-04 10:41:00,77.2,11.4,29.80,NE,38,5.8,5.8,8,0.00,,---,0.00,VWS V14.01,2013-07-04 17:41:00,
2013-07-04 10:46:00,75.9,10.4,29.80,NE,52,6.3,6.3,8,0.00,,---,0.00,VWS V14.01,2013-07-04 17:46:00,
2013-07-04 10:51:00,69.3,10.4,29.80,East,99,10.5,10.5,10,0.00,,---,0.00,VWS V14.01,2013-07-04 17:51:00,
2013-07-04 10:56:00,69.3,10.4,29.80,NNE,30,4.0,4.0,10,0.00,,---,0.00,VWS V14.01,2013-07-04 17:56:00,
2013-07-04 11:01:00,73.9,9.0,29.77,NE,44,8.7,8.7,8,0.00,,---,0.00,VWS V14.01,2013-07-04 18:01:00,
2013-07-04 11:06:00,71.1,9.4,29.77,ENE,74,8.1,8.1,9,0.00,,---,0.00,VWS V14.01,2013-07-04 18:06:00,
2013-07-04 11:11:00,71.1,9.4,29.77,ENE,74,8.1,8.1,9,0.00,,---,0.00,VWS V14.01,2013-07-04 18:11:00,
2013-07-04 11:16:00,76.1,10.6,29.77,NE,41,10.5,10.5,8,0.00,,---,0.00,VWS V14.01,2013-07-04 18:16:00,
2013-07-04 11:21:00,76.1,10.6,29.77,NE,41,10.5,10.5,8,0.00,,---,0.00,VWS V14.01,2013-07-04 18:21:00,
2013-07-04 11:26:00,68.9,10.1,29.77,East,88,8.1,8.1,10,0.00,,---,0.00,VWS V14.01,2013-07-04 18:26:00,
2013-07-04 11:31:00,75.0,9.8,29.77,East,82,10.1,10.1,8,0.00,,---,0.00,VWS V14.01,2013-07-04 18:31:00,
2013-07-04 11:36:00,77.0,11.2,29.77,NE,37,5.8,10.1,8,0.00,,---,0.00,VWS V14.01,2013-07-04 18:36:00,
2013-07-04 11:41:00,71.8,10.0,29.77,ENE,73,7.6,7.6,9,0.00,,---,0.00,VWS V14.01,2013-07-04 18:41:00,
2013-07-04 11:46:00,72.3,10.4,29.77,ESE,110,8.3,8.3,9,0.00,,---,0.00,VWS V14.01,2013-07-04 18:46:00,
2013-07-04 11:51:00,73.8,8.8,29.77,NNE,23,7.6,7.6,8,0.00,,---,0.00,VWS V14.01,2013-07-04 18:51:00,
2013-07-04 11:56:00,68.9,10.1,29.77,ESE,106,7.6,8.3,10,0.00,,---,0.00,VWS V14.01,2013-07-04 18:56:00,
2013-07-04 12:01:00,76.1,10.6,29.77,NE,53,10.1,10.1,8,0.00,,---,0.00,VWS V14.01,2013-07-04 19:01:00,
2013-07-04 12:06:00,77.5,11.6,29.77,NE,53,10.1,10.1,8,0.00,,---,0.00,VWS V14.01,2013-07-04 19:06:00,
2013-07-04 12:11:00,70.5,9.0,29.77,ESE,119,10.1,10.1,9,0.00,,---,0.00,VWS V14.01,2013-07-04 19:11:00,
2013-07-04 12:16:00,70.5,9.0,29.77,ESE,119,10.1,10.1,9,0.00,,---,0.00,VWS V14.01,2013-07-04 19:16:00,
2013-07-04 12:21:00,77.2,11.4,29.77,NE,34,7.2,7.2,8,0.00,,---,0.00,VWS V14.01,2013-07-04 19:21:00,
2013-07-04 12:26:00,75.7,10.3,29.77,North,353,4.9,4.9,8,0.00,,---,0.00,VWS V14.01,2013-07-04 19:26:00,
2013-07-04 12:31:00,73.6,8.7,29.77,ENE,68,8.3,8.3,8,0.00,,---,0.00,VWS V14.01,2013-07-04 19:31:00,
2013-07-04 12:36:00,77.2,11.4,29.77,NE,50,12.3,12.3,8,0.00,,---,0.00,VWS V14.01,2013-07-04 19:36:00,
2013-07-04 12:41:00,77.2,11.4,29.77,NE,38,9.6,9.6,8,0.00,,---,0.00,VWS V14.01,2013-07-04 19:41:00,
2013-07-04 12:46:00,77.5,11.6,29.77,ENE,76,7.6,7.6,8,0.00,,---,0.00,VWS V14.01,2013-07-04 19:46:00,
2013-07-04 12:51:00,77.5,11.6,29.77,NNE,29,3.6,3.6,8,0.00,,---,0.00,VWS V14.01,2013-07-04 19:51:00,
2013-07-04 12:56:00,73.6,8.7,29.77,NNE,29,7.2,7.2,8,0.00,,---,0.00,VWS V14.01,2013-07-04 19:56:00,
2013-07-04 13:01:00,71.4,9.7,29.77,NNE,32,10.5,10.5,9,0.00,,---,0.00,VWS V14.01,2013-07-04 20:01:00,
2013-07-04 13:06:00,74.5,9.4,29.77,NNE,30,4.0,4.0,8,0.00,,---,0.00,VWS V14.01,2013-07-04 20:06:00,
2013-07-04 13:11:00,78.1,12.0,29.77,SE,133,6.7,6.7,8,0.00,,---,0.00,VWS V14.01,2013-07-04 20:11:00,
2013-07-04 13:16:00,76.8,11.1,29.77,NE,39,4.0,4.0,8,0.00,,---,0.00,VWS V14.01,2013-07-04 20:16:00,
2013-07-04 13:21:00,77.4,11.5,29.77,NE,39,4.0,4.0,8,0.00,,---,0.00,VWS V14.01,2013-07-04 20:21:00,
2013-07-04 13:26:00,74.8,9.6,29.77,NE,44,6.3,6.3,8,0.00,,---,0.00,VWS V14.01,2013-07-04 20:26:00,
2013-07-04 13:31:00,74.8,9.6,29.77,NE,42,6.3,6.3,8,0.00,,---,0.00,VWS V14.01,2013-07-04 20:31:00,
2013-07-04 13:36:00,75.4,10.0,29.77,NE,42,6.3,6.3,8,0.00,,---,0.00,VWS V14.01,2013-07-04 20:36:00,
2013-07-04 13:41:00,74.3,9.2,29.77,NNE,17,4.9,4.9,8,0.00,,---,0.00,VWS V14.01,2013-07-04 20:41:00,
2013-07-04 13:46:00,78.4,12.3,29.74,NE,37,8.3,8.3,8,0.00,,---,0.00,VWS V14.01,2013-07-04 20:46:00,
2013-07-04 13:51:00,77.7,11.8,29.74,NE,39,8.1,8.1,8,0.00,,---,0.00,VWS V14.01,2013-07-04 20:51:00,
2013-07-04 13:56:00,75.6,10.2,29.74,NE,48,8.7,8.7,8,0.00,,---,0.00,VWS V14.01,2013-07-04 20:56:00,
2013-07-04 14:01:00,78.4,12.3,29.74,NE,51,10.1,10.1,8,0.00,,---,0.00,VWS V14.01,2013-07-04 21:01:00,
2013-07-04 14:06:00,79.2,9.8,29.74,NE,47,10.1,10.1,7,0.00,,---,0.00,VWS V14.01,2013-07-04 21:06:00,
2013-07-04 14:11:00,78.6,12.4,29.74,NE,46,8.3,8.3,8,0.00,,---,0.00,VWS V14.01,2013-07-04 21:11:00,
2013-07-04 14:16:00,79.3,10.0,29.74,NE,46,8.3,8.3,7,0.00,,---,0.00,VWS V14.01,2013-07-04 21:16:00,
2013-07-04 14:21:00,80.1,10.5,29.74,ENE,68,8.3,8.3,7,0.00,,---,0.00,VWS V14.01,2013-07-04 21:21:00,
2013-07-04 14:26:00,74.7,9.5,29.74,NE,41,10.1,10.1,8,0.00,,---,0.00,VWS V14.01,2013-07-04 21:26:00,
2013-07-04 14:31:00,74.7,9.5,29.74,East,89,8.1,8.1,8,0.00,,---,0.00,VWS V14.01,2013-07-04 21:31:00,
2013-07-04 14:36:00,77.7,11.8,29.74,NE,41,7.6,7.6,8,0.00,,---,0.00,VWS V14.01,2013-07-04 21:36:00,
2013-07-04 14:41:00,77.7,11.8,29.74,NE,41,7.6,7.6,8,0.00,,---,0.00,VWS V14.01,2013-07-04 21:41:00,
2013-07-04 14:46:00,74.8,9.6,29.74,SE,124,4.0,4.0,8,0.00,,---,0.00,VWS V14.01,2013-07-04 21:46:00,
2013-07-04 14:51:00,77.4,11.5,29.74,SE,129,6.3,6.3,8,0.00,,---,0.00,VWS V14.01,2013-07-04 21:51:00,
2013-07-04 14:56:00,78.8,9.6,29.74,NE,35,10.1,10.1,7,0.00,,---,0.00,VWS V14.01,2013-07-04 21:56:00,
2013-07-04 15:01:00,80.6,10.9,29.74,NE,51,4.9,4.9,7,0.00,,---,0.00,VWS V14.01,2013-07-04 22:01:00,
2013-07-04 15:06:00,80.6,10.9,29.74,NE,52,4.9,7.6,7,0.00,,---,0.00,VWS V14.01,2013-07-04 22:06:00,
2013-07-04 15:11:00,78.3,12.2,29.74,ENE,58,8.1,8.1,8,0.00,,---,0.00,VWS V14.01,2013-07-04 22:11:00,
2013-07-04 15:16:00,78.3,12.2,29.71,NE,56,5.4,5.4,8,0.00,,---,0.00,VWS V14.01,2013-07-04 22:16:00,
2013-07-04 15:21:00,78.8,9.6,29.71,NNE,29,11.4,11.4,7,0.00,,---,0.00,VWS V14.01,2013-07-04 22:21:00,
2013-07-04 15:26:00,79.5,10.1,29.71,NE,35,7.6,7.6,7,0.00,,---,0.00,VWS V14.01,2013-07-04 22:26:00,
2013-07-04 15:31:00,80.1,10.5,29.71,East,97,5.8,5.8,7,0.00,,---,0.00,VWS V14.01,2013-07-04 22:31:00,
2013-07-04 15:36:00,76.1,10.6,29.71,East,97,5.8,5.8,8,0.00,,---,0.00,VWS V14.01,2013-07-04 22:36:00,
2013-07-04 15:41:00,77.0,11.2,29.71,ESE,104,5.8,5.8,8,0.00,,---,0.00,VWS V14.01,2013-07-04 22:41:00,
2013-07-04 15:47:00,79.2,9.8,29.71,NE,56,8.3,8.3,7,0.00,,---,0.00,VWS V14.01,2013-07-04 22:47:00,
2013-07-04 15:52:00,79.3,10.0,29.71,NE,46,5.8,5.8,7,0.00,,---,0.00,VWS V14.01,2013-07-04 22:52:00,
2013-07-04 15:57:00,79.3,10.0,29.71,ESE,113,10.5,10.5,7,0.00,,---,0.00,VWS V14.01,2013-07-04 22:57:00,
2013-07-04 16:01:00,77.4,11.5,29.71,East,86,7.6,7.6,8,0.00,,---,0.00,VWS V14.01,2013-07-04 23:01:00,
2013-07-04 16:06:00,76.8,11.1,29.71,East,89,8.7,8.7,8,0.00,,---,0.00,VWS V14.01,2013-07-04 23:06:00,
2013-07-04 16:12:00,78.3,12.2,29.71,ESE,113,11.0,11.0,8,0.00,,---,0.00,VWS V14.01,2013-07-04 23:12:00,
2013-07-04 16:16:00,78.6,12.4,29.71,NE,34,4.5,4.5,8,0.00,,---,0.00,VWS V14.01,2013-07-04 23:16:00,
2013-07-04 16:21:00,77.0,11.2,29.71,East,90,7.6,7.6,8,0.00,,---,0.00,VWS V14.01,2013-07-04 23:21:00,
2013-07-04 16:26:00,78.1,12.0,29.71,NE,43,10.1,10.1,8,0.00,,---,0.00,VWS V14.01,2013-07-04 23:26:00,
2013-07-04 16:31:00,79.2,9.8,29.71,NE,37,8.7,8.7,7,0.00,,---,0.00,VWS V14.01,2013-07-04 23:31:00,
2013-07-04 16:36:00,79.5,10.1,29.71,ENE,62,8.1,8.1,7,0.00,,---,0.00,VWS V14.01,2013-07-04 23:36:00,
2013-07-04 16:41:00,79.0,9.7,29.71,NE,36,8.7,8.7,7,0.00,,---,0.00,VWS V14.01,2013-07-04 23:41:00,
2013-07-04 16:46:00,78.3,12.2,29.71,NE,52,12.3,12.3,8,0.00,,---,0.00,VWS V14.01,2013-07-04 23:46:00,
2013-07-04 16:51:00,78.8,9.6,29.68,East,83,7.6,7.6,7,0.00,,---,0.00,VWS V14.01,2013-07-04 23:51:00,
2013-07-04 16:56:00,78.8,9.6,29.68,ENE,61,8.7,8.7,7,0.00,,---,0.00,VWS V14.01,2013-07-04 23:56:00,
2013-07-04 17:01:00,78.6,12.4,29.68,ESE,113,8.1,8.1,8,0.00,,---,0.00,VWS V14.01,2013-07-05 00:01:00,
2013-07-04 17:06:00,77.7,11.8,29.68,NNE,30,9.2,9.2,8,0.00,,---,0.00,VWS V14.01,2013-07-05 00:06:00,
2013-07-04 17:11:00,76.3,10.7,29.68,ESE,110,5.8,5.8,8,0.00,,---,0.00,VWS V14.01,2013-07-05 00:11:00,
2013-07-04 17:17:00,76.1,10.6,29.68,ENE,61,10.1,10.1,8,0.00,,---,0.00,VWS V14.01,2013-07-05 00:17:00,
2013-07-04 17:21:00,76.3,10.7,29.68,NE,46,5.4,5.4,8,0.00,,---,0.00,VWS V14.01,2013-07-05 00:21:00,
2013-07-04 17:26:00,75.0,9.8,29.68,ESE,119,5.8,5.8,8,0.00,,---,0.00,VWS V14.01,2013-07-05 00:26:00,
2013-07-04 17:31:00,75.4,10.0,29.68,ESE,104,10.1,10.1,8,0.00,,---,0.00,VWS V14.01,2013-07-05 00:31:00,
2013-07-04 17:37:00,75.4,10.0,29.68,ESE,104,10.1,10.1,8,0.00,,---,0.00,VWS V14.01,2013-07-05 00:37:00,
2013-07-04 17:42:00,75.7,10.3,29.68,NE,34,8.1,8.1,8,0.00,,---,0.00,VWS V14.01,2013-07-05 00:42:00,
2013-07-04 17:47:00,74.5,9.4,29.68,NE,51,5.4,5.4,8,0.00,,---,0.00,VWS V14.01,2013-07-05 00:47:00,
2013-07-04 17:52:00,74.3,9.2,29.68,NE,49,8.7,8.7,8,0.00,,---,0.00,VWS V14.01,2013-07-05 00:52:00,
2013-07-04 17:57:00,74.1,9.1,29.68,ESE,105,5.4,5.4,8,0.00,,---,0.00,VWS V14.01,2013-07-05 00:57:00,
2013-07-04 18:02:00,74.8,9.6,29.68,NNE,29,7.6,7.6,8,0.00,,---,0.00,VWS V14.01,2013-07-05 01:02:00,
2013-07-04 18:07:00,75.0,9.8,29.68,NNE,29,7.6,7.6,8,0.00,,---,0.00,VWS V14.01,2013-07-05 01:07:00,
2013-07-04 18:12:00,73.8,8.8,29.68,NNE,30,5.4,5.4,8,0.00,,---,0.00,VWS V14.01,2013-07-05 01:12:00,
2013-07-04 18:17:00,73.6,8.7,29.68,NNE,30,5.4,5.4,8,0.00,,---,0.00,VWS V14.01,2013-07-05 01:17:00,
2013-07-04 18:22:00,73.8,8.8,29.68,NE,55,8.3,8.3,8,0.00,,---,0.00,VWS V14.01,2013-07-05 01:22:00,
2013-07-04 18:27:00,73.4,8.6,29.68,East,86,5.4,5.4,8,0.00,,---,0.00,VWS V14.01,2013-07-05 01:27:00,
2013-07-04 18:32:00,73.4,8.6,29.68,NE,50,5.8,5.8,8,0.00,,---,0.00,VWS V14.01,2013-07-05 01:32:00,
2013-07-04 18:37:00,72.1,10.2,29.68,SE,126,10.1,10.1,9,0.00,,---,0.00,VWS V14.01,2013-07-05 01:37:00,
2013-07-04 18:42:00,72.3,10.4,29.68,East,81,8.7,8.7,9,0.00,,---,0.00,VWS V14.01,2013-07-05 01:42:00,
2013-07-04 18:47:00,72.9,10.8,29.68,NE,35,7.6,7.6,9,0.00,,---,0.00,VWS V14.01,2013-07-05 01:47:00,
2013-07-04 18:52:00,72.9,10.8,29.68,East,101,5.4,5.4,9,0.00,,---,0.00,VWS V14.01,2013-07-05 01:52:00,
2013-07-04 18:57:00,72.3,10.4,29.68,ESE,102,7.6,7.6,9,0.00,,---,0.00,VWS V14.01,2013-07-05 01:57:00,
2013-07-04 19:02:00,72.1,10.2,29.68,NNE,24,7.6,7.6,9,0.00,,---,0.00,VWS V14.01,2013-07-05 02:02:00,
2013-07-04 19:07:00,71.6,9.8,29.68,NE,55,5.4,5.8,9,0.00,,---,0.00,VWS V14.01,2013-07-05 02:07:00,
2013-07-04 19:12:00,71.6,9.8,29.68,NNE,31,8.7,8.7,9,0.00,,---,0.00,VWS V14.01,2013-07-05 02:12:00,
2013-07-04 19:17:00,71.6,9.8,29.68,NE,42,5.8,5.8,9,0.00,,---,0.00,VWS V14.01,2013-07-05 02:17:00,
2013-07-04 19:22:00,71.2,9.6,29.68,NE,41,5.8,8.1,9,0.00,,---,0.00,VWS V14.01,2013-07-05 02:22:00,
2013-07-04 19:27:00,70.7,9.1,29.68,NNE,31,10.1,10.1,9,0.00,,---,0.00,VWS V14.01,2013-07-05 02:27:00,
2013-07-04 19:32:00,70.3,8.9,29.68,West,259,6.3,6.3,9,0.00,,---,0.00,VWS V14.01,2013-07-05 02:32:00,
2013-07-04 19:37:00,70.0,8.6,29.68,ESE,106,11.0,11.0,9,0.00,,---,0.00,VWS V14.01,2013-07-05 02:37:00,
2013-07-04 19:42:00,69.6,10.7,29.68,ENE,60,8.3,8.3,10,0.00,,---,0.00,VWS V14.01,2013-07-05 02:42:00,
2013-07-04 19:47:00,69.6,10.7,29.68,NE,38,8.3,8.3,10,0.00,,---,0.00,VWS V14.01,2013-07-05 02:47:00,
2013-07-04 19:52:00,69.1,10.3,29.68,ENE,76,8.1,8.1,10,0.00,,---,0.00,VWS V14.01,2013-07-05 02:52:00,
2013-07-04 19:57:00,68.7,10.0,29.68,ENE,76,8.1,8.1,10,0.00,,---,0.00,VWS V14.01,2013-07-05 02:57:00,
2013-07-04 20:02:00,68.5,9.8,29.68,ENE,76,8.1,8.1,10,0.00,,---,0.00,VWS V14.01,2013-07-05 03:02:00,
2013-07-04 20:07:00,68.0,9.4,29.68,NE,35,5.4,6.3,10,0.00,,---,0.00,VWS V14.01,2013-07-05 03:07:00,
2013-07-04 20:12:00,67.6,9.1,29.68,ENE,60,6.7,8.1,10,0.00,,---,0.00,VWS V14.01,2013-07-05 03:12:00,
2013-07-04 20:17:00,67.6,9.1,29.68,NE,36,5.4,5.4,10,0.00,,---,0.00,VWS V14.01,2013-07-05 03:17:00,
2013-07-04 20:22:00,66.9,12.7,29.68,NE,36,8.7,8.7,12,0.00,,---,0.00,VWS V14.01,2013-07-05 03:22:00,
2013-07-04 20:27:00,66.9,12.7,29.68,NNE,26,7.6,10.1,12,0.00,,---,0.00,VWS V14.01,2013-07-05 03:27:00,
2013-07-04 20:32:00,66.4,12.3,29.68,ENE,62,8.3,8.3,12,0.00,,---,0.00,VWS V14.01,2013-07-05 03:32:00,
2013-07-04 20:37:00,66.4,12.3,29.68,NE,40,6.3,6.3,12,0.00,,---,0.00,VWS V14.01,2013-07-05 03:37:00,
2013-07-04 20:42:00,66.4,12.3,29.68,NE,41,5.8,5.8,12,0.00,,---,0.00,VWS V14.01,2013-07-05 03:42:00,
2013-07-04 20:47:00,64.8,16.1,29.68,NE,50,8.3,8.3,15,0.00,,---,0.00,VWS V14.01,2013-07-05 03:47:00,
2013-07-04 20:52:00,64.6,15.9,29.68,NE,50,8.3,8.3,15,0.00,,---,0.00,VWS V14.01,2013-07-05 03:52:00,
2013-07-04 20:57:00,63.9,19.6,29.68,NE,36,8.3,8.3,18,0.00,,---,0.00,VWS V14.01,2013-07-05 03:57:00,
2013-07-04 21:01:00,63.9,19.6,29.68,NE,45,7.6,7.6,18,0.00,,---,0.00,VWS V14.01,2013-07-05 04:01:00,
2013-07-04 21:06:00,63.1,22.6,29.71,ENE,64,9.6,9.6,21,0.00,,---,0.00,VWS V14.01,2013-07-05 04:06:00,
2013-07-04 21:11:00,62.6,24.3,29.71,ENE,59,8.3,9.6,23,0.00,,---,0.00,VWS V14.01,2013-07-05 04:11:00,
2013-07-04 21:16:00,62.6,24.3,29.71,NNE,23,8.3,8.3,23,0.00,,---,0.00,VWS V14.01,2013-07-05 04:16:00,
2013-07-04 21:21:00,61.9,25.7,29.71,ESE,113,8.7,8.7,25,0.00,,---,0.00,VWS V14.01,2013-07-05 04:21:00,
2013-07-04 21:27:00,61.9,24.7,29.71,NE,51,4.0,4.0,24,0.00,,---,0.00,VWS V14.01,2013-07-05 04:27:00,
2013-07-04 21:32:00,61.3,24.3,29.71,East,83,6.3,6.3,24,0.00,,---,0.00,VWS V14.01,2013-07-05 04:32:00,
2013-07-04 21:37:00,61.2,24.1,29.68,NE,42,5.4,5.4,24,0.00,,---,0.00,VWS V14.01,2013-07-05 04:37:00,
2013-07-04 21:42:00,61.2,24.1,29.68,ESE,109,4.0,4.0,24,0.00,,---,0.00,VWS V14.01,2013-07-05 04:42:00,
2013-07-04 21:47:00,61.2,24.1,29.68,ESE,118,9.2,9.2,24,0.00,,---,0.00,VWS V14.01,2013-07-05 04:47:00,
2013-07-04 21:51:00,61.2,24.1,29.71,ESE,114,8.7,8.7,24,0.00,,---,0.00,VWS V14.01,2013-07-05 04:51:00,
2013-07-04 21:57:00,60.8,23.8,29.71,ESE,105,6.7,6.7,24,0.00,,---,0.00,VWS V14.01,2013-07-05 04:57:00,
2013-07-04 22:01:00,60.6,24.6,29.71,East,85,2.7,7.6,25,0.00,,---,0.00,VWS V14.01,2013-07-05 05:01:00,
2013-07-04 22:06:00,60.4,24.5,29.71,NNW,348,6.3,6.3,25,0.00,,---,0.00,VWS V14.01,2013-07-05 05:06:00,
2013-07-04 22:12:00,59.9,25.0,29.71,East,82,8.3,8.3,26,0.00,,---,0.00,VWS V14.01,2013-07-05 05:12:00,
2013-07-04 22:17:00,59.7,24.8,29.71,ESE,108,5.8,5.8,26,0.00,,---,0.00,VWS V14.01,2013-07-05 05:17:00,
2013-07-04 22:22:00,59.5,24.6,29.71,NNE,27,4.9,12.8,26,0.00,,---,0.00,VWS V14.01,2013-07-05 05:22:00,
2013-07-04 22:27:00,59.5,24.6,29.71,NE,39,4.9,4.9,26,0.00,,---,0.00,VWS V14.01,2013-07-05 05:27:00,
2013-07-04 22:32:00,59.2,24.3,29.71,ESE,103,7.6,7.6,26,0.00,,---,0.00,VWS V14.01,2013-07-05 05:32:00,
2013-07-04 22:37:00,58.6,24.8,29.71,East,85,4.9,4.9,27,0.00,,---,0.00,VWS V14.01,2013-07-05 05:37:00,
2013-07-04 22:41:00,58.3,25.3,29.74,East,95,5.8,7.6,28,0.00,,---,0.00,VWS V14.01,2013-07-05 05:41:00,
2013-07-04 22:46:00,58.3,25.3,29.74,WSW,246,3.1,3.1,28,0.00,,---,0.00,VWS V14.01,2013-07-05 05:46:00,
2013-07-04 22:51:00,58.3,25.3,29.74,ESE,102,8.1,8.1,28,0.00,,---,0.00,VWS V14.01,2013-07-05 05:51:00,
2013-07-04 22:56:00,57.9,25.9,29.74,ESE,122,5.8,5.8,29,0.00,,---,0.00,VWS V14.01,2013-07-05 05:56:00,
2013-07-04 23:02:00,57.9,25.9,29.74,ESE,112,9.6,9.6,29,0.00,,---,0.00,VWS V14.01,2013-07-05 06:02:00,
2013-07-04 23:07:00,57.9,25.9,29.71,East,94,4.9,7.2,29,0.00,,---,0.00,VWS V14.01,2013-07-05 06:07:00,
2013-07-04 23:12:00,57.9,25.9,29.71,ENE,60,5.4,5.4,29,0.00,,---,0.00,VWS V14.01,2013-07-05 06:12:00,
2013-07-04 23:16:00,57.9,25.9,29.71,SE,130,5.8,8.3,29,0.00,,---,0.00,VWS V14.01,2013-07-05 06:16:00,
2013-07-04 23:22:00,58.3,26.2,29.74,East,89,7.6,7.6,29,0.00,,---,0.00,VWS V14.01,2013-07-05 06:22:00,
2013-07-04 23:26:00,58.3,26.2,29.74,East,89,7.6,7.6,29,0.00,,---,0.00,VWS V14.01,2013-07-05 06:26:00,
2013-07-04 23:31:00,58.3,26.2,29.74,ESE,104,7.6,7.6,29,0.00,,---,0.00,VWS V14.01,2013-07-05 06:31:00,
2013-07-04 23:36:00,58.3,26.2,29.74,ESE,103,11.0,11.0,29,0.00,,---,0.00,VWS V14.01,2013-07-05 06:36:00,
2013-07-04 23:41:00,58.3,26.2,29.74,SE,125,3.1,5.8,29,0.00,,---,0.00,VWS V14.01,2013-07-05 06:41:00,
2013-07-04 23:46:00,57.9,25.9,29.74,NE,56,8.1,8.1,29,0.00,,---,0.00,VWS V14.01,2013-07-05 06:46:00,
2013-07-04 23:51:00,57.9,25.9,29.71,ESE,103,4.9,4.9,29,0.00,,---,0.00,VWS V14.01,2013-07-05 06:51:00,
2013-07-04 23:56:00,57.4,26.2,29.71,ESE,122,8.3,8.3,30,0.00,,---,0.00,VWS V14.01,2013-07-05 06:56:00,